GW6248 Weather Reports


time (UTC)temp
C
wind
direction
speed
KPH
gust
KPH
rain 1hr
cm
rain 24hr
cm
rain mn
cm
humidity
%
barometer
mb
20260510225718 4 329 1.6 3.2 0.00 0.00 0.00 82 1015.6
20260510225003 4 307 1.6 3.2 0.00 0.00 0.00 81 1015.8
20260510224503 4 307 1.6 3.2 0.00 0.00 0.00 80 1015.5
20260510224003 5 302 0.0 3.2 0.00 0.00 0.00 80 1015.8
20260510223503 5 330 0.0 3.2 0.00 0.00 0.00 80 1015.8
20260510223003 5 346 0.0 3.2 0.00 0.00 0.00 80 1015.5
20260510222503 5 349 0.0 3.2 0.00 0.00 0.00 79 1015.8
20260510222003 5 338 0.0 3.2 0.00 0.00 0.00 78 1016.0
20260510221503 5 340 0.0 3.2 0.00 0.00 0.00 77 1016.1
20260510221003 5 330 0.0 3.2 0.00 0.00 0.00 77 1016.0
20260510220503 5 321 0.0 3.2 0.00 0.00 0.00 75 1015.9
20260510220003 5 321 1.6 3.2 0.00 0.00 0.00 74 1016.1
20260510215503 5 319 1.6 3.2 0.00 0.00 0.00 74 1016.2
20260510215217 5 317 1.6 3.2 0.00 0.00 0.00 73 1016.1
20260510214718 6 327 0.0 3.2 0.00 0.00 0.00 72 1016.0
20260510214003 6 328 0.0 3.2 0.00 0.00 0.00 71 1016.2
20260510213503 6 326 1.6 3.2 0.00 0.00 0.00 70 1016.1
20260510213003 6 316 1.6 3.2 0.00 0.00 0.00 69 1016.2
20260510212503 6 313 1.6 3.2 0.00 0.00 0.00 69 1016.4
20260510212216 6 304 1.6 3.2 0.00 0.00 0.00 68 1016.2
20260510211717 7 293 1.6 3.2 0.00 0.00 0.00 67 1016.5
20260510211003 7 301 1.6 3.2 0.00 0.00 0.00 65 1016.5
20260510210717 7 302 1.6 4.8 0.00 0.00 0.00 65 1016.6
20260510210216 7 308 1.6 4.8 0.00 0.00 0.00 65 1016.6
20260510205503 7 313 1.6 3.2 0.00 0.00 0.00 65 1016.5
20260510205003 7 313 1.6 3.2 0.00 0.00 0.00 65 1016.6
20260510204503 7 325 1.6 4.8 0.00 0.00 0.00 64 1016.5
20260510204003 7 327 1.6 4.8 0.00 0.00 0.00 64 1016.6
20260510203503 7 316 1.6 4.8 0.00 0.00 0.00 63 1016.5
20260510203003 7 321 1.6 4.8 0.00 0.00 0.00 62 1016.6
20260510202503 7 322 1.6 3.2 0.00 0.00 0.00 60 1016.2
20260510202003 8 314 1.6 3.2 0.00 0.00 0.00 60 1016.4
20260510201717 8 308 1.6 4.8 0.00 0.00 0.00 58 1016.3
20260510201003 8 303 1.6 6.4 0.00 0.00 0.00 58 1016.2
20260510200503 8 306 1.6 6.4 0.00 0.00 0.00 58 1016.2
20260510200003 8 312 1.6 3.2 0.00 0.00 0.00 59 1016.1
20260510195717 8 316 1.6 3.2 0.00 0.00 0.00 57 1016.3
20260510195003 8 309 1.6 3.2 0.00 0.00 0.00 58 1016.1
20260510194503 8 300 1.6 3.2 0.00 0.00 0.00 56 1016.3
20260510194003 8 306 1.6 4.8 0.00 0.00 0.00 56 1016.2
20260510193503 9 312 1.6 4.8 0.00 0.00 0.00 54 1016.1
20260510193003 9 298 1.6 4.8 0.00 0.00 0.00 54 1016.2
20260510192503 9 290 1.6 4.8 0.00 0.00 0.00 54 1016.3
20260510192003 10 295 1.6 4.8 0.00 0.00 0.00 52 1016.1
20260510191504 10 300 1.6 3.2 0.00 0.00 0.00 53 1016.1
20260510191003 10 296 1.6 4.8 0.00 0.00 0.00 52 1016.2
20260510190503 10 290 1.6 4.8 0.00 0.00 0.00 52 1016.3
20260510190003 10 299 1.6 3.2 0.00 0.00 0.00 51 1016.2
20260510185503 10 295 1.6 3.2 0.00 0.00 0.00 51 1016.2
20260510185003 10 273 1.6 4.8 0.00 0.00 0.00 51 1016.0
20260510184503 11 283 1.6 4.8 0.00 0.00 0.00 52 1016.2
20260510184003 11 300 1.6 4.8 0.00 0.00 0.00 52 1016.2
20260510183503 11 291 1.6 4.8 0.00 0.00 0.00 51 1016.1
20260510183217 11 286 1.6 4.8 0.00 0.00 0.00 53 1016.0
20260510182503 11 281 1.6 4.8 0.00 0.00 0.00 53 1016.2
20260510182003 11 293 1.6 6.4 0.00 0.00 0.00 54 1016.0
20260510181503 11 266 1.6 6.4 0.00 0.00 0.00 52 1015.8
20260510181003 12 255 1.6 6.4 0.00 0.00 0.00 51 1016.0
20260510180503 12 293 1.6 4.8 0.00 0.00 0.00 52 1016.0
20260510180003 12 309 1.6 9.7 0.00 0.00 0.00 53 1016.1
20260510175718 12 309 1.6 9.7 0.00 0.00 0.00 53 1016.2
20260510175003 12 349 1.6 6.4 0.00 0.00 0.00 50 1016.0
20260510174503 12 333 1.6 6.4 0.00 0.00 0.00 51 1016.0
20260510174003 12 347 1.6 6.4 0.00 0.00 0.00 54 1016.1
20260510173503 13 360 1.6 4.8 0.00 0.00 0.00 52 1016.1
20260510173217 13 325 1.6 4.8 0.00 0.00 0.00 52 1016.0
20260510172503 13 276 3.2 8.0 0.00 0.00 0.00 50 1015.9
20260510172003 13 276 3.2 8.0 0.00 0.00 0.00 50 1016.1
20260510171503 13 275 3.2 9.7 0.00 0.00 0.00 50 1016.0
20260510171003 13 291 3.2 9.7 0.00 0.00 0.00 50 1016.2
20260510170503 14 288 3.2 8.0 0.00 0.00 0.00 50 1016.4
20260510170217 14 280 3.2 8.0 0.00 0.00 0.00 47 1016.4
20260510165503 14 283 3.2 8.0 0.00 0.00 0.00 48 1016.4
20260510165003 14 326 3.2 6.4 0.00 0.00 0.00 47 1016.2
20260510164503 14 340 3.2 6.4 0.00 0.00 0.00 49 1016.1
20260510164003 14 270 3.2 9.7 0.00 0.00 0.00 48 1016.4
20260510163503 15 261 3.2 9.7 0.00 0.00 0.00 47 1016.2
20260510163003 15 256 3.2 9.7 0.00 0.00 0.00 47 1016.1
20260510162503 15 275 3.2 8.0 0.00 0.00 0.00 46 1016.2
20260510162217 15 287 1.6 6.4 0.00 0.00 0.00 47 1016.4
20260510161503 14 248 3.2 9.7 0.00 0.00 0.00 46 1016.3
20260510161003 14 254 4.8 9.7 0.00 0.00 0.00 47 1016.4
20260510160504 13 271 3.2 8.0 0.00 0.00 0.00 49 1016.6
20260510160003 14 269 3.2 6.4 0.00 0.00 0.00 46 1016.7
20260510155503 15 268 3.2 8.0 0.00 0.00 0.00 47 1016.9
20260510155003 15 254 3.2 8.0 0.00 0.00 0.00 44 1016.5
20260510154503 15 242 4.8 12.9 0.00 0.00 0.00 40 1016.8
20260510154003 16 253 4.8 12.9 0.00 0.00 0.00 41 1016.8
20260510153503 16 261 4.8 12.9 0.00 0.00 0.00 40 1016.6
20260510153003 16 254 4.8 9.7 0.00 0.00 0.00 43 1016.8
20260510152503 16 243 3.2 9.7 0.00 0.00 0.00 41 1017.1
20260510152003 15 260 3.2 8.0 0.00 0.00 0.00 43 1017.0
20260510151503 16 227 3.2 11.3 0.00 0.00 0.00 41 1017.1
20260510151003 16 212 4.8 11.3 0.00 0.00 0.00 39 1017.0
20260510150503 16 245 4.8 14.5 0.00 0.00 0.00 41 1017.1
20260510150004 16 248 4.8 14.5 0.00 0.00 0.00 41 1017.1
20260510145503 16 249 4.8 14.5 0.00 0.00 0.00 40 1017.2
20260510145218 16 250 4.8 14.5 0.00 0.00 0.00 39 1017.2
20260510144503 16 243 4.8 14.5 0.00 0.00 0.00 39 1017.0
20260510144003 16 238 4.8 14.5 0.00 0.00 0.00 40 1017.2
20260510143503 16 245 4.8 12.9 0.00 0.00 0.00 38 1017.3
20260510143003 16 251 6.4 20.9 0.00 0.00 0.00 39 1017.1
20260510142503 15 249 6.4 20.9 0.00 0.00 0.00 39 1017.4
20260510142003 16 246 6.4 9.7 0.00 0.00 0.00 35 1017.4
20260510141503 16 249 6.4 11.3 0.00 0.00 0.00 38 1017.7
20260510141003 17 248 4.8 11.3 0.00 0.00 0.00 37 1017.4
20260510140503 17 241 4.8 11.3 0.00 0.00 0.00 37 1017.4
20260510140007 16 237 4.8 9.7 0.00 0.00 0.00 39 1017.6
20260510135717 15 233 4.8 11.3 0.00 0.00 0.00 39 1017.8
20260510135003 16 233 4.8 11.3 0.00 0.00 0.00 38 1017.6
20260510134503 15 239 4.8 14.5 0.00 0.00 0.00 38 1017.7
20260510134003 16 248 6.4 14.5 0.00 0.00 0.00 40 1017.8
20260510133504 14 250 4.8 14.5 0.00 0.00 0.00 43 1017.8
20260510133217 15 247 6.4 14.5 0.00 0.00 0.00 41 1017.9
20260510132503 15 248 4.8 12.9 0.00 0.00 0.00 41 1017.9
20260510132005 15 230 4.8 14.5 0.00 0.00 0.00 41 1017.9
20260510131503 17 222 4.8 14.5 0.00 0.00 0.00 38 1018.0
20260510131003 16 229 4.8 9.7 0.00 0.00 0.00 39 1018.0
20260510130503 15 234 4.8 9.7 0.00 0.00 0.00 41 1018.2
20260510130003 16 251 4.8 11.3 0.00 0.00 0.00 39 1018.1
20260510125506 15 243 6.4 20.9 0.00 0.00 0.00 45 1018.2
20260510125004 17 228 6.4 20.9 0.00 0.00 0.00 41 1018.3
20260510124503 16 229 4.8 12.9 0.00 0.00 0.00 42 1018.2
20260510124003 15 235 4.8 9.7 0.00 0.00 0.00 45 1018.2
20260510123503 15 229 4.8 14.5 0.00 0.00 0.00 44 1018.5
20260510123005 14 222 4.8 14.5 0.00 0.00 0.00 43 1018.3
20260510122503 16 227 4.8 11.3 0.00 0.00 0.00 45 1018.5
20260510122003 16 229 4.8 12.9 0.00 0.00 0.00 44 1018.7
20260510121503 16 232 4.8 17.7 0.00 0.00 0.00 43 1018.6
20260510121003 16 235 4.8 17.7 0.00 0.00 0.00 44 1018.5
20260510120503 15 232 4.8 16.1 0.00 0.00 0.00 44 1018.9
20260510120003 15 224 4.8 12.9 0.00 0.00 0.00 44 1018.8
20260510115503 15 217 4.8 12.9 0.00 0.00 0.00 46 1018.8
20260510115003 15 220 4.8 12.9 0.00 0.00 0.00 46 1018.8
20260510114503 15 225 4.8 9.7 0.00 0.00 0.00 48 1018.6
20260510114217 15 222 4.8 9.7 0.00 0.00 0.00 46 1018.8
20260510113718 14 220 4.8 12.9 0.00 0.00 0.00 49 1018.8
20260510113003 15 224 4.8 12.9 0.00 0.00 0.00 48 1018.8
20260510112503 15 229 4.8 12.9 0.00 0.00 0.00 45 1019.1
20260510112003 15 226 4.8 12.9 0.00 0.00 0.00 45 1019.1
20260510111503 15 220 4.8 9.7 0.00 0.00 0.00 47 1019.1
20260510111003 15 222 4.8 12.9 0.00 0.00 0.00 47 1019.2
20260510110503 15 221 4.8 12.9 0.00 0.00 0.00 47 1019.4
20260510110003 15 216 4.8 12.9 0.00 0.00 0.00 47 1019.4
20260510105503 15 215 4.8 12.9 0.00 0.00 0.00 49 1019.4
20260510105003 13 223 4.8 12.9 0.00 0.00 0.00 52 1019.5
20260510104503 13 223 4.8 12.9 0.00 0.00 0.00 53 1019.2
20260510104003 13 218 4.8 11.3 0.00 0.00 0.00 54 1019.6
20260510103503 15 218 4.8 11.3 0.00 0.00 0.00 50 1019.5
20260510103003 15 220 4.8 11.3 0.00 0.00 0.00 49 1019.7
20260510102503 14 223 4.8 14.5 0.00 0.00 0.00 51 1019.6
20260510102003 14 221 6.4 17.7 0.00 0.00 0.00 52 1019.6
20260510101503 14 222 4.8 17.7 0.00 0.00 0.00 52 1019.7
20260510101003 14 230 4.8 12.9 0.00 0.00 0.00 51 1019.8
20260510100503 13 235 4.8 11.3 0.00 0.00 0.00 54 1019.6
20260510100003 13 230 4.8 9.7 0.00 0.00 0.00 54 1019.6
20260510095503 13 222 6.4 12.9 0.00 0.00 0.00 53 1019.7
20260510095003 13 219 4.8 12.9 0.00 0.00 0.00 53 1020.0
20260510094503 13 212 4.8 12.9 0.00 0.00 0.00 57 1020.1
20260510094003 12 215 4.8 16.1 0.00 0.00 0.00 58 1020.0
20260510093503 12 224 4.8 17.7 0.00 0.00 0.00 60 1020.1
20260510093003 13 228 4.8 17.7 0.00 0.00 0.00 57 1020.2
20260510092504 13 227 4.8 12.9 0.00 0.00 0.00 58 1020.0
20260510092003 13 229 4.8 12.9 0.00 0.00 0.00 56 1020.2
20260510091503 12 231 4.8 11.3 0.00 0.00 0.00 58 1020.0
20260510091003 12 227 4.8 11.3 0.00 0.00 0.00 60 1020.1
20260510090503 13 223 4.8 11.3 0.00 0.00 0.00 60 1020.3
20260510090003 12 218 4.8 9.7 0.00 0.00 0.00 59 1020.1
20260510085503 12 222 4.8 9.7 0.00 0.00 0.00 60 1020.3
20260510085003 12 236 4.8 12.9 0.00 0.00 0.00 63 1020.3
20260510084504 12 236 6.4 12.9 0.00 0.00 0.00 62 1020.2
20260510084003 12 232 4.8 9.7 0.00 0.00 0.00 61 1020.4
20260510083503 12 240 4.8 12.9 0.00 0.00 0.00 63 1020.1
20260510083003 11 231 4.8 12.9 0.00 0.00 0.00 63 1020.1
20260510082503 12 223 4.8 9.7 0.00 0.00 0.00 62 1020.4
20260510082217 12 225 4.8 9.7 0.00 0.00 0.00 63 1020.1
20260510081503 11 228 4.8 9.7 0.00 0.00 0.00 63 1020.3
20260510081003 11 242 4.8 11.3 0.00 0.00 0.00 66 1020.1
20260510080503 11 236 4.8 11.3 0.00 0.00 0.00 66 1020.3
20260510080004 11 229 4.8 9.7 0.00 0.00 0.00 66 1020.1
20260510075503 11 232 3.2 9.7 0.00 0.00 0.00 67 1020.3
20260510075003 10 231 3.2 8.0 0.00 0.00 0.00 69 1020.2
20260510074503 10 240 3.2 9.7 0.00 0.00 0.00 70 1020.2
20260510074003 10 256 3.2 9.7 0.00 0.00 0.00 71 1020.5
20260510073503 10 267 4.8 9.7 0.00 0.00 0.00 73 1020.5
20260510073003 8 268 4.8 14.5 0.00 0.00 0.00 74 1020.3
20260510072503 9 257 3.2 14.5 0.00 0.00 0.00 74 1020.4
20260510072003 8 243 3.2 8.0 0.00 0.00 0.00 75 1020.5
20260510071503 8 243 3.2 8.0 0.00 0.00 0.00 74 1020.3
20260510071003 8 251 3.2 8.0 0.00 0.00 0.00 74 1020.2
20260510070503 8 259 3.2 8.0 0.00 0.00 0.00 74 1020.5
20260510070003 8 251 3.2 9.7 0.00 0.00 0.00 75 1020.4
20260510065718 8 243 3.2 9.7 0.00 0.00 0.00 76 1020.4
20260510065003 8 254 3.2 8.0 0.00 0.00 0.00 75 1020.4
20260510064503 8 265 3.2 6.4 0.00 0.00 0.00 76 1020.5
20260510064003 8 262 3.2 6.4 0.00 0.00 0.00 77 1020.3
20260510063503 8 259 3.2 8.0 0.00 0.00 0.00 77 1020.4
20260510063003 8 267 3.2 8.0 0.00 0.00 0.00 78 1020.2
20260510062503 8 270 1.6 6.4 0.00 0.00 0.00 78 1020.2
20260510062217 8 274 1.6 6.4 0.00 0.00 0.00 79 1020.2
20260510061503 7 283 1.6 6.4 0.00 0.00 0.00 79 1020.3
20260510061003 7 284 1.6 6.4 0.00 0.00 0.00 80 1020.0
20260510060503 7 294 1.6 4.8 0.00 0.00 0.00 80 1020.3
20260510060003 7 296 1.6 6.4 0.00 0.00 0.00 79 1020.2
20260510055718 7 279 1.6 6.4 0.00 0.00 0.00 79 1020.2
20260510055003 7 247 3.2 6.4 0.00 0.00 0.00 79 1020.2
20260510054503 7 273 1.6 6.4 0.00 0.00 0.00 79 1020.2
20260510054003 7 276 1.6 4.8 0.00 0.00 0.00 79 1020.2
20260510053503 8 248 1.6 6.4 0.00 0.00 0.00 79 1019.9
20260510053003 8 249 1.6 6.4 0.00 0.00 0.00 79 1020.1
20260510052503 7 269 1.6 6.4 0.00 0.00 0.00 79 1020.1
20260510052003 7 271 1.6 4.8 0.00 0.00 0.00 80 1020.1
20260510051503 8 266 1.6 4.8 0.00 0.00 0.00 80 1020.2
20260510051003 8 257 1.6 4.8 0.00 0.00 0.00 79 1020.2
20260510050503 8 232 1.6 6.4 0.00 0.00 0.00 79 1020.2
20260510050003 8 224 1.6 6.4 0.00 0.00 0.00 79 1020.0
20260510045503 8 260 1.6 4.8 0.00 0.00 0.00 79 1020.2
20260510045003 8 280 1.6 4.8 0.00 0.00 0.00 80 1020.1
20260510044503 8 282 1.6 4.8 0.00 0.00 0.00 80 1020.2
20260510044216 8 279 1.6 4.8 0.00 0.00 0.00 80 1020.1
20260510043503 8 294 1.6 4.8 0.00 0.00 0.00 80 1020.5
20260510043003 8 295 1.6 4.8 0.00 0.00 0.00 79 1020.2
20260510042503 8 297 1.6 4.8 0.00 0.00 0.00 79 1020.2
20260510042003 8 288 1.6 3.2 0.00 0.00 0.00 79 1020.2
20260510041503 8 273 1.6 4.8 0.00 0.00 0.00 79 1020.0
20260510041218 8 269 1.6 6.4 0.00 0.00 0.00 78 1020.1
20260510040503 8 273 1.6 6.4 0.00 0.00 0.00 79 1020.2
20260510040218 8 275 1.6 4.8 0.00 0.00 0.00 79 1020.3
20260510035503 8 277 1.6 4.8 0.00 0.00 0.00 78 1020.4
20260510035003 8 277 1.6 4.8 0.00 0.00 0.00 78 1020.4
20260510034503 8 278 1.6 4.8 0.00 0.00 0.00 78 1020.5
20260510034218 8 270 1.6 4.8 0.00 0.00 0.00 77 1020.5
20260510033717 8 269 1.6 4.8 0.00 0.00 0.00 77 1020.4
20260510033003 8 271 1.6 4.8 0.00 0.00 0.00 77 1020.5
20260510032503 8 262 1.6 6.4 0.00 0.00 0.00 77 1020.5
20260510032003 8 275 1.6 6.4 0.00 0.00 0.00 77 1020.5
20260510031503 8 275 1.6 4.8 0.00 0.00 0.00 77 1020.4
20260510031003 8 258 1.6 4.8 0.00 0.00 0.00 77 1020.7
20260510030503 8 262 1.6 4.8 0.00 0.00 0.00 77 1020.6
20260510030217 8 267 1.6 4.8 0.00 0.00 0.00 77 1020.7
20260510025503 8 268 1.6 4.8 0.00 0.00 0.00 77 1020.8
20260510025003 8 272 1.6 4.8 0.00 0.00 0.00 77 1020.8
20260510024503 8 273 1.6 6.4 0.00 0.00 0.00 77 1020.7
20260510024003 8 258 1.6 6.4 0.00 0.00 0.00 77 1020.8
20260510023503 8 260 1.6 4.8 0.00 0.00 0.00 78 1020.5
20260510023003 9 270 1.6 4.8 0.00 0.00 0.00 77 1020.9
20260510022503 9 282 1.6 4.8 0.00 0.00 0.00 77 1020.6
20260510022003 9 259 1.6 4.8 0.00 0.00 0.00 77 1020.7
20260510021503 9 264 1.6 4.8 0.00 0.00 0.00 78 1020.5
20260510021003 9 282 1.6 4.8 0.00 0.00 0.00 77 1020.9
20260510020716 9 284 1.6 4.8 0.00 0.00 0.00 77 1020.8
20260510020004 9 270 1.6 6.4 0.00 0.00 0.00 78 1020.9
20260510015503 9 289 1.6 6.4 0.00 0.00 0.00 78 1020.8
20260510015003 9 288 1.6 6.4 0.00 0.00 0.00 78 1021.0
20260510014503 9 264 1.6 6.4 0.00 0.00 0.00 78 1020.9
20260510014217 9 253 1.6 6.4 0.00 0.00 0.00 78 1020.8
20260510013503 9 257 1.6 4.8 0.00 0.00 0.00 78 1020.9
20260510013003 9 281 1.6 4.8 0.00 0.00 0.00 79 1020.6
20260510012503 9 277 1.6 4.8 0.00 0.00 0.00 78 1020.8
20260510012217 9 289 1.6 4.8 0.00 0.00 0.00 79 1020.6
20260510011503 9 321 1.6 6.4 0.00 0.00 0.00 79 1020.7
20260510011003 9 291 1.6 6.4 0.00 0.00 0.00 79 1020.4
20260510010503 9 277 1.6 8.0 0.00 0.00 0.00 79 1020.7
20260510010217 9 280 1.6 8.0 0.00 0.00 0.00 79 1020.4
20260510005503 9 285 1.6 4.8 0.00 0.00 0.00 80 1020.8
20260510005003 9 288 1.6 4.8 0.00 0.00 0.00 80 1020.7
20260510004503 9 278 1.6 4.8 0.00 0.00 0.00 80 1020.5
20260510004003 9 287 1.6 3.2 0.00 0.00 0.00 80 1020.8
20260510003503 9 287 1.6 3.2 0.00 0.00 0.00 80 1020.5
20260510003003 9 283 1.6 4.8 0.00 0.00 0.00 81 1020.5
20260510002718 9 275 1.6 4.8 0.00 0.00 0.00 81 1020.7
20260510002216 10 287 1.6 4.8 0.00 0.00 0.00 81 1020.4
20260510001503 10 297 1.6 6.4 0.00 0.00 0.00 81 1020.7
20260510001216 10 293 1.6 6.4 0.00 0.00 0.00 81 1020.7
20260510000503 10 282 1.6 6.4 0.00 0.00 0.00 81 1020.6
20260510000003 10 278 1.6 6.4 0.00 0.00 0.00 80 1020.7
20260509235503 10 280 3.2 6.4 0.00 0.00 0.00 81 1020.7
20260509235003 10 280 3.2 6.4 0.00 0.00 0.00 81 1020.8
20260509234717 10 277 1.6 6.4 0.00 0.00 0.00 81 1020.7
20260509234003 10 271 1.6 4.8 0.00 0.00 0.00 81 1020.6
20260509233503 10 290 1.6 4.8 0.00 0.00 0.00 81 1020.7
20260509233003 10 286 1.6 4.8 0.00 0.00 0.00 81 1020.7
20260509232503 10 281 1.6 4.8 0.00 0.00 0.00 81 1020.8
20260509232003 10 285 1.6 4.8 0.00 0.00 0.00 81 1020.6
20260509231503 10 279 1.6 6.4 0.00 0.00 0.00 80 1020.8
20260509231003 10 282 1.6 6.4 0.00 0.00 0.00 80 1020.8
20260509230503 10 285 3.2 6.4 0.00 0.00 0.00 80 1020.7
20260509230003 10 275 3.2 8.0 0.00 0.00 0.00 80 1020.6